TimeEST,TemperatureF,Dew PointF,Humidity,Sea Level PressureIn,VisibilityMPH,Wind Direction,Wind SpeedMPH,Gust SpeedMPH,PrecipitationIn,Events,Conditions,WindDirDegrees,DateUTC
12:15 AM,36.1,32.5,87,30.03,10.0,Calm,Calm,-,N/A,,Clear,0,2012-12-29 05:15:00
12:35 AM,36.5,32.9,87,30.02,10.0,Calm,Calm,-,N/A,,Clear,0,2012-12-29 05:35:00
12:55 AM,35.6,33.3,91,30.02,10.0,Calm,Calm,-,N/A,,Clear,0,2012-12-29 05:55:00
1:15 AM,36.0,32.9,89,30.00,10.0,Calm,Calm,-,N/A,,Scattered Clouds,0,2012-12-29 06:15:00
1:35 AM,36.5,33.4,89,30.00,10.0,Calm,Calm,-,N/A,,Overcast,0,2012-12-29 06:35:00
1:55 AM,36.1,33.3,89,29.99,10.0,Calm,Calm,-,N/A,,Overcast,0,2012-12-29 06:55:00
2:15 AM,36.5,33.8,90,30.01,10.0,Calm,Calm,-,N/A,,Overcast,0,2012-12-29 07:15:00
2:35 AM,36.9,33.4,87,30.00,10.0,Calm,Calm,-,N/A,,Overcast,0,2012-12-29 07:35:00
2:55 AM,36.5,33.8,90,29.99,10.0,Calm,Calm,-,N/A,,Overcast,0,2012-12-29 07:55:00
3:15 AM,36.5,33.6,89,29.97,10.0,Calm,Calm,-,N/A,,Overcast,0,2012-12-29 08:15:00
3:35 AM,36.7,33.8,89,29.96,10.0,Calm,Calm,-,N/A,,Overcast,0,2012-12-29 08:35:00
3:55 AM,36.5,33.4,89,29.93,10.0,ENE,3.5,-,N/A,,Mostly Cloudy,70,2012-12-29 08:55:00
4:15 AM,36.9,34.0,89,29.94,10.0,Calm,Calm,-,N/A,,Mostly Cloudy,0,2012-12-29 09:15:00
4:35 AM,36.7,34.7,93,29.94,10.0,Calm,Calm,-,N/A,,Mostly Cloudy,0,2012-12-29 09:35:00
4:55 AM,36.9,34.7,92,29.90,10.0,SE,4.6,-,N/A,,Scattered Clouds,130,2012-12-29 09:55:00
5:15 AM,36.9,34.3,91,29.87,10.0,SE,5.8,-,N/A,Rain,Light Rain,140,2012-12-29 10:15:00
5:35 AM,36.9,34.3,91,29.86,10.0,Calm,Calm,-,N/A,,Mostly Cloudy,0,2012-12-29 10:35:00
5:55 AM,37.4,34.2,88,29.84,10.0,Calm,Calm,-,N/A,,Overcast,0,2012-12-29 10:55:00
6:15 AM,36.9,33.8,89,29.83,10.0,Calm,Calm,-,N/A,,Mostly Cloudy,0,2012-12-29 11:15:00
6:35 AM,36.9,34.2,90,29.81,10.0,Calm,Calm,-,N/A,,Overcast,0,2012-12-29 11:35:00
6:55 AM,35.8,34.3,94,29.81,10.0,ESE,3.5,-,N/A,,Mostly Cloudy,120,2012-12-29 11:55:00
7:15 AM,36.5,33.8,90,29.79,10.0,Calm,Calm,-,N/A,,Mostly Cloudy,0,2012-12-29 12:15:00
7:35 AM,36.7,33.4,88,29.77,10.0,East,3.5,-,N/A,,Mostly Cloudy,80,2012-12-29 12:35:00
7:55 AM,36.5,33.4,89,29.78,10.0,Calm,Calm,-,N/A,,Mostly Cloudy,0,2012-12-29 12:55:00
8:15 AM,36.9,34.5,91,29.78,10.0,Calm,Calm,-,N/A,,Overcast,0,2012-12-29 13:15:00
8:35 AM,37.6,34.5,89,29.78,10.0,NW,4.6,-,N/A,Rain,Light Rain,310,2012-12-29 13:35:00
8:55 AM,37.4,35.1,91,29.78,4.0,NW,5.8,-,N/A,Rain,Heavy Rain,320,2012-12-29 13:55:00
9:15 AM,36.5,35.2,95,29.79,2.0,WNW,4.6,-,0.01,Rain,Rain,300,2012-12-29 14:15:00
9:35 AM,36.1,35.6,98,29.80,1.2,WNW,4.6,-,0.03,Rain,Rain,300,2012-12-29 14:35:00
9:55 AM,36.0,36.0,100,29.79,1.5,NW,3.5,-,0.04,Rain,Light Rain,310,2012-12-29 14:55:00
10:15 AM,36.0,36.0,100,29.77,2.0,Calm,Calm,-,0.01,Rain,Light Rain,0,2012-12-29 15:15:00
10:35 AM,36.1,36.1,100,29.75,1.2,Calm,Calm,-,0.02,Rain,Rain,0,2012-12-29 15:35:00
10:55 AM,36.5,36.5,100,29.73,2.5,Calm,Calm,-,0.03,Rain,Light Rain,0,2012-12-29 15:55:00
11:15 AM,36.7,36.7,100,29.71,2.5,Calm,Calm,-,0.01,Rain,Light Rain,0,2012-12-29 16:15:00
11:35 AM,37.6,37.6,100,29.70,4.0,Calm,Calm,-,0.01,Rain,Light Rain,0,2012-12-29 16:35:00
11:55 AM,37.6,37.6,100,29.68,5.0,Calm,Calm,-,0.01,,Overcast,0,2012-12-29 16:55:00
12:15 PM,38.7,38.7,100,29.67,5.0,Calm,Calm,-,N/A,,Overcast,0,2012-12-29 17:15:00
12:35 PM,39.7,39.4,99,29.64,7.0,West,3.5,-,N/A,,Overcast,260,2012-12-29 17:35:00
1:15 PM,41.0,38.8,92,29.61,10.0,SW,3.5,-,N/A,,Overcast,220,2012-12-29 18:15:00
1:35 PM,41.9,39.6,91,29.60,10.0,West,4.6,-,N/A,,Mostly Cloudy,260,2012-12-29 18:35:00
1:55 PM,43.0,39.7,88,29.59,10.0,WSW,5.8,-,N/A,,Mostly Cloudy,250,2012-12-29 18:55:00
2:15 PM,44.2,40.3,86,29.58,10.0,WSW,6.9,-,N/A,,Scattered Clouds,240,2012-12-29 19:15:00
2:35 PM,45.5,39.7,80,29.58,10.0,WSW,5.8,-,N/A,,Clear,250,2012-12-29 19:35:00
2:55 PM,46.6,39.4,76,29.58,10.0,West,6.9,-,N/A,,Clear,270,2012-12-29 19:55:00
3:15 PM,46.8,39.4,75,29.58,10.0,WNW,5.8,-,N/A,,Clear,290,2012-12-29 20:15:00
3:35 PM,46.6,38.8,74,29.58,10.0,West,6.9,-,N/A,,Clear,280,2012-12-29 20:35:00
3:55 PM,47.3,39.2,73,29.59,10.0,West,9.2,-,N/A,,Clear,280,2012-12-29 20:55:00
4:15 PM,46.8,39.0,74,29.60,10.0,West,5.8,-,N/A,,Scattered Clouds,260,2012-12-29 21:15:00
4:35 PM,46.0,38.8,76,29.60,10.0,West,4.6,-,N/A,,Clear,280,2012-12-29 21:35:00
5:15 PM,44.1,38.7,81,29.61,10.0,WNW,3.5,-,N/A,,Clear,300,2012-12-29 22:15:00
5:35 PM,40.1,38.5,94,29.62,10.0,WNW,3.5,-,N/A,,Clear,290,2012-12-29 22:35:00
5:55 PM,40.1,39.0,96,29.63,10.0,Calm,Calm,-,N/A,,Clear,0,2012-12-29 22:55:00
6:15 PM,37.2,36.7,98,29.64,10.0,Calm,Calm,-,N/A,,Clear,0,2012-12-29 23:15:00
6:35 PM,37.6,37.6,100,29.66,10.0,Calm,Calm,-,N/A,,Clear,0,2012-12-29 23:35:00
7:15 PM,36.9,36.9,100,29.69,10.0,Calm,Calm,-,N/A,,Scattered Clouds,0,2012-12-30 00:15:00
7:35 PM,39.2,38.5,97,29.70,10.0,West,4.6,-,N/A,,Scattered Clouds,280,2012-12-30 00:35:00
7:55 PM,42.4,33.6,71,29.72,10.0,West,5.8,-,N/A,,Mostly Cloudy,280,2012-12-30 00:55:00
8:15 PM,42.4,32.7,68,29.72,10.0,NW,8.1,-,N/A,,Mostly Cloudy,310,2012-12-30 01:15:00
8:35 PM,42.1,32.2,68,29.74,10.0,Calm,Calm,-,N/A,,Mostly Cloudy,0,2012-12-30 01:35:00
8:55 PM,41.9,32.0,68,29.75,10.0,NW,6.9,-,N/A,,Mostly Cloudy,320,2012-12-30 01:55:00
9:15 PM,42.6,31.8,66,29.76,10.0,NW,6.9,-,N/A,,Overcast,320,2012-12-30 02:15:00
9:35 PM,43.2,30.6,61,29.78,10.0,NW,9.2,-,N/A,,Overcast,310,2012-12-30 02:35:00
9:55 PM,43.0,30.0,60,29.78,10.0,NW,15.0,20.7,N/A,,Overcast,320,2012-12-30 02:55:00
10:15 PM,42.6,29.8,61,29.79,10.0,Calm,Calm,-,N/A,,Scattered Clouds,0,2012-12-30 03:15:00
10:35 PM,42.4,30.4,62,29.80,10.0,NNW,4.6,-,N/A,,Mostly Cloudy,330,2012-12-30 03:35:00
10:55 PM,41.9,30.6,64,29.81,10.0,NW,3.5,-,N/A,,Overcast,320,2012-12-30 03:55:00
11:15 PM,41.2,30.0,65,29.82,10.0,WNW,3.5,-,N/A,,Scattered Clouds,300,2012-12-30 04:15:00
11:35 PM,41.4,29.1,62,29.83,10.0,WNW,9.2,-,N/A,,Clear,300,2012-12-30 04:35:00
11:55 PM,41.2,28.6,61,29.83,10.0,WNW,11.5,19.6,N/A,,Clear,300,2012-12-30 04:55:00